Regional Weather Roundup
Issued by NWS Burlington, VT

Current Version | Previous Version | Text Only | Print | Product List | Glossary Off
Versions: 1 2 3 4 5 6 7 8 9 10 11 12 13 14 15 16 17 18 19 20 21 22 23 24 25 26 27 28 29 30 31 32 33 34 35 36 37 38 39 40 41 42 43 44 45 46 47 48 49 50

000
ASUS41 KBTV 271830
RWRBTV
VERMONT REGIONAL WEATHER ROUNDUP
NATIONAL WEATHER SERVICE BURLINGTON VT
200 PM EDT MON APR 27 2015

NOTE: "FAIR" INDICATES FEW OR NO CLOUDS BELOW 12,000 FEET WITH NO
SIGNIFICANT WEATHER AND/OR OBSTRUCTIONS TO VISIBILITY.

* THESE REPORTS ARE NOT UNDER NWS QUALITY CONTROL AND/OR DO NOT
  REPORT WEATHER SUCH AS PRECIPITATION AND FOG.

VTZ001>019-271900-
_____VERMONT_____


CITY           SKY/WX    TMP DP  RH WIND       PRES   REMARKS
BURLINGTON     LGT RAIN  47  42  83 N15       29.72S
6HR MIN TEMP:  42; 6HR MAX TEMP:  49; 6HR PCP:  0.02;

MONTPELIER     LGT RAIN  45  39  79 N12G20    29.70R
6HR MIN TEMP:  38; 6HR MAX TEMP:  45; 6HR PCP:  0.03;

MORRISVILLE    LGT RAIN  46  40  79 N12G21    29.70R
6HR MIN TEMP:  41; 6HR MAX TEMP:  47; 6HR PCP: TRACE;

ST. JOHNSBURY*   N/A     47  39  74 MISG      29.64R
6HR MIN TEMP:  40; 6HR MAX TEMP:  48; 6HR PCP:  0.01;

LYNDONVILLE*   DRIZZLE   44  38  80 W12       29.66S
6HR MIN TEMP:  40; 6HR MAX TEMP:  46;

MIDDLEBURY*    DRIZZLE   45  44  97 N13G22    29.70S
6HR MIN TEMP:  42; 6HR MAX TEMP:  46; 6HR PCP:  0.01;

RUTLAND*       CLOUDY   N/A N/A N/A N14G23    29.67R
SPRINGFIELD    LGT RAIN  50  36  58 NW10G16   29.63S
6HR MIN TEMP:  46; 6HR MAX TEMP:  51; 6HR PCP: TRACE;

HIGHGATE*      DRIZZLE   46  42  86 N9        29.73S
6HR MIN TEMP:  40; 6HR MAX TEMP:  46;

NEWPORT*       CLOUDY    44  41  88 N13       29.68S
6HR MIN TEMP:  38; 6HR MAX TEMP:  44;

BENNINGTON     CLOUDY    53  36  52 N10G22    29.65F
6HR MIN TEMP:  44; 6HR MAX TEMP:  53; 6HR PCP: TRACE;

MT. MANSFIELD*   N/A     32 N/A N/A CALM        N/A

_____LAKE CHAMPLAIN_____


CITY           SKY/WX    TMP DP  RH WIND       PRES   REMARKS
BURTON ISLAND*   N/A     45  41  87 NW6         N/A
COLCHESTER RF*   N/A     45  39  81 N18         N/A
DIAMOND ISL*     N/A     45  39  81 N1          N/A

$$

NYZ007-026>031-035-052-083-271900-
_____NORTHERN NEW YORK_____


CITY           SKY/WX    TMP DP  RH WIND       PRES   REMARKS
PLATTSBURGH    CLOUDY    50  41  71 N17       29.73S
6HR MIN TEMP:  43; 6HR MAX TEMP:  50; 6HR PCP: TRACE;

SARANAC LAKE   LGT RAIN  43  38  82 N8        29.71S
6HR MIN TEMP:  36; 6HR MAX TEMP:  44; 6HR PCP:  0.01;

MASSENA        CLOUDY    53  38  56 W3        29.78S
6HR MIN TEMP:  42; 6HR MAX TEMP:  54; 6HR PCP: TRACE;

OGDENSBURG*    CLOUDY    54  39  58 CALM      29.78S
POTSDAM*       CLOUDY    52  41  66 NE7       29.77F
WATERTOWN      CLOUDY    46  38  73 SW10      29.81R
6HR MIN TEMP:  41; 6HR MAX TEMP:  50;

FT DRUM        MOCLDY    50  38  64 N9        29.78S
6HR MIN TEMP:  39; 6HR MAX TEMP:  50;

ALBANY         CLOUDY    54  41  61 NE7       29.67S
6HR MIN TEMP:  47; 6HR MAX TEMP:  57; 6HR PCP: TRACE;

GLENS FALLS    CLOUDY    55  36  48 N14       29.67F
6HR MIN TEMP:  47; 6HR MAX TEMP:  56;


$$
NHZ002-005-011-271900-
_____NEW HAMPSHIRE_____


CITY           SKY/WX    TMP DP  RH WIND       PRES   REMARKS
LEBANON        CLOUDY    50  37  61 NW10      29.62S
6HR MIN TEMP:  46; 6HR MAX TEMP:  53; 6HR PCP: TRACE;

KEENE          CLOUDY    54  36  50 N16G25    29.60F
6HR MIN TEMP:  46; 6HR MAX TEMP:  54;

MT WASHINGTON  SNOW      25  25 100 N30         N/A  VSB 0   WCI   8
6HR MIN TEMP:  21; 6HR MAX TEMP:  27; 6HR PCP:  0.02;

PLYMOUTH       CLOUDY    53  42  67 W15G23    29.59S
6HR MIN TEMP:  44; 6HR MAX TEMP:  53;

WHITEFIELD     LGT RAIN  46  39  76 N12       29.63R
6HR MIN TEMP:  40; 6HR MAX TEMP:  47; 6HR PCP:  0.03;


$$

_____REGIONAL QUEBEC LOCATIONS_____


CITY           SKY/WX    TMP DP  RH WIND       PRES   REMARKS
MONTREAL       CLOUDY    54  39  58 N12       29.75S
QUEBEC CITY    CLOUDY    50  45  81 E8        29.72F
SHERBROOKE     CLOUDY    48  41  76 N12G21    29.66S

_____REGIONAL ONTARIO LOCATIONS_____


CITY           SKY/WX    TMP DP  RH WIND       PRES   REMARKS
OTTAWA         MOCLDY    55  37  50 NW15      29.78S

______KEY______
VSB  - VISIBILITY IN MILES
WCI  - WIND CHILL INDEX
HX   - HEAT INDEX
$$
NNNN



USA.gov is the U.S. government's official web portal to all federal, state and local government web resources and services.